AFR17DT LFPG-EDDL

Flight info

Callsign AFR17DT
Flight time 0h 53m
Altitude 23000
Route RANUX DCT VALEK DCT LUTAX UM163 DIK N853 ARCKY T853 NVO T857 BIKMU BIKMU1A
Aircraft E190/M-SDE3GILORVW/S

Departure

Time 2026-05-04 21:03
Airport Charles de Gaulle International Airport (LFPG)

Arrival

Time 2026-05-04 21:56
Airport Düsseldorf Airport (EDDL)
Time Latitude Longitude Altitude Speed Heading
2026-05-04 20:26 49.00381 2.60045 352 ft 0 kts 355°
2026-05-04 20:34 49.00386 2.60045 350 ft 0 kts 355°
2026-05-04 20:50 49.00364 2.60048 353 ft 0 kts 355°
2026-05-04 20:50 49.00338 2.60084 352 ft 0 kts 269°
2026-05-04 20:53 49.00338 2.60078 359 ft 1 kts 268°
2026-05-04 20:53 49.00336 2.60050 355 ft 4 kts 264°
2026-05-04 20:53 49.00332 2.59982 356 ft 9 kts 264°
2026-05-04 20:53 49.00325 2.59863 352 ft 13 kts 265°
2026-05-04 20:54 49.00317 2.59710 354 ft 15 kts 265°
2026-05-04 20:54 49.00290 2.59567 361 ft 13 kts 259°
2026-05-04 20:54 49.00232 2.59485 352 ft 13 kts 181°
2026-05-04 20:54 49.00144 2.59495 355 ft 12 kts 174°
2026-05-04 20:55 49.00077 2.59455 353 ft 11 kts 244°
2026-05-04 20:55 49.00065 2.59341 358 ft 11 kts 268°
2026-05-04 20:55 49.00060 2.59221 361 ft 11 kts 268°
2026-05-04 20:55 49.00054 2.59099 353 ft 12 kts 265°
2026-05-04 20:56 49.00046 2.58972 355 ft 12 kts 264°
2026-05-04 20:56 49.00038 2.58841 353 ft 13 kts 265°
2026-05-04 20:56 49.00032 2.58701 353 ft 14 kts 266°
2026-05-04 20:56 49.00024 2.58549 353 ft 15 kts 266°
2026-05-04 20:57 49.00014 2.58383 359 ft 16 kts 265°
2026-05-04 20:57 49.00005 2.58203 353 ft 18 kts 266°
2026-05-04 20:57 48.99994 2.58010 353 ft 19 kts 265°
2026-05-04 20:57 48.99984 2.57807 353 ft 20 kts 266°
2026-05-04 20:58 48.99972 2.57597 357 ft 20 kts 265°
2026-05-04 20:58 48.99962 2.57382 353 ft 20 kts 266°
2026-05-04 20:58 48.99950 2.57166 354 ft 20 kts 264°
2026-05-04 20:58 48.99938 2.56952 353 ft 20 kts 264°
2026-05-04 20:59 48.99926 2.56742 356 ft 20 kts 265°
2026-05-04 20:59 48.99916 2.56539 356 ft 19 kts 266°
2026-05-04 20:59 48.99907 2.56348 353 ft 18 kts 265°
2026-05-04 20:59 48.99895 2.56162 353 ft 17 kts 265°
2026-05-04 21:00 48.99856 2.56020 355 ft 15 kts 198°
2026-05-04 21:00 48.99808 2.55964 355 ft 12 kts 243°
2026-05-04 21:00 48.99761 2.55822 353 ft 10 kts 213°
2026-05-04 21:00 48.99708 2.55813 353 ft 1 kts 175°
2026-05-04 21:01 48.99707 2.55813 353 ft 0 kts 175°
2026-05-04 21:01 48.99702 2.55814 353 ft 2 kts 175°
2026-05-04 21:01 48.99674 2.55818 356 ft 6 kts 173°
2026-05-04 21:02 48.99620 2.55841 358 ft 10 kts 144°
2026-05-04 21:02 48.99608 2.55961 352 ft 14 kts 85°
2026-05-04 21:02 48.99630 2.56398 357 ft 72 kts 85°
2026-05-04 21:02 48.99689 2.57472 353 ft 129 kts 84°
2026-05-04 21:03 48.99782 2.59029 549 ft 158 kts 84°
2026-05-04 21:03 48.99887 2.60761 1143 ft 169 kts 84°
2026-05-04 21:03 48.99965 2.62575 1935 ft 175 kts 85°
2026-05-04 21:03 49.00120 2.64535 2322 ft 195 kts 80°
2026-05-04 21:04 49.00363 2.66614 2912 ft 201 kts 80°
2026-05-04 21:04 49.00489 2.68781 3429 ft 212 kts 88°
2026-05-04 21:04 49.00505 2.71029 4066 ft 214 kts 89°
2026-05-04 21:04 49.00539 2.73311 4698 ft 216 kts 86°
2026-05-04 21:05 49.00649 2.75608 5305 ft 218 kts 85°
2026-05-04 21:05 49.00770 2.77916 5909 ft 220 kts 85°
2026-05-04 21:05 49.00888 2.80240 6474 ft 221 kts 85°
2026-05-04 21:05 49.01005 2.82590 6989 ft 223 kts 85°
2026-05-04 21:06 49.01124 2.84962 7504 ft 225 kts 85°
2026-05-04 21:06 49.01240 2.87354 8007 ft 227 kts 86°
2026-05-04 21:06 49.01354 2.89760 8486 ft 229 kts 86°
2026-05-04 21:06 49.01495 2.92188 8973 ft 231 kts 83°
2026-05-04 21:07 49.01740 2.94611 9468 ft 233 kts 81°
2026-05-04 21:07 49.02019 2.97067 9961 ft 235 kts 81°
2026-05-04 21:07 49.02308 2.99533 10412 ft 237 kts 81°
2026-05-04 21:07 49.02592 3.01975 10872 ft 239 kts 81°
2026-05-04 21:08 49.02882 3.04480 11325 ft 240 kts 80°
2026-05-04 21:08 49.03174 3.07000 11777 ft 242 kts 81°
2026-05-04 21:08 49.03466 3.09538 12231 ft 244 kts 81°
2026-05-04 21:08 49.03760 3.12089 12679 ft 246 kts 81°
2026-05-04 21:09 49.04054 3.14661 13121 ft 248 kts 81°
2026-05-04 21:09 49.04353 3.17261 13610 ft 250 kts 81°
2026-05-04 21:09 49.04656 3.19920 14017 ft 263 kts 80°
2026-05-04 21:09 49.04987 3.22823 14040 ft 290 kts 81°
2026-05-04 21:10 49.05345 3.25966 14214 ft 310 kts 81°
2026-05-04 21:10 49.05722 3.29290 14466 ft 326 kts 81°
2026-05-04 21:10 49.06112 3.32746 14924 ft 334 kts 81°
2026-05-04 21:10 49.06508 3.36256 15490 ft 338 kts 81°
2026-05-04 21:11 49.06907 3.39808 16051 ft 342 kts 81°
2026-05-04 21:11 49.07309 3.43397 16617 ft 346 kts 81°
2026-05-04 21:11 49.07718 3.47048 17186 ft 350 kts 81°
2026-05-04 21:11 49.08142 3.50721 17731 ft 354 kts 81°
2026-05-04 21:12 49.08547 3.54427 18232 ft 358 kts 84°
2026-05-04 21:12 49.08823 3.58227 18717 ft 361 kts 85°
2026-05-04 21:12 49.09093 3.62052 19281 ft 364 kts 85°
2026-05-04 21:12 49.09352 3.65909 19839 ft 367 kts 85°
2026-05-04 21:13 49.09613 3.69800 20402 ft 371 kts 85°
2026-05-04 21:13 49.09876 3.73719 20926 ft 374 kts 85°
2026-05-04 21:13 49.10140 3.77710 21431 ft 378 kts 85°
2026-05-04 21:13 49.10406 3.81714 21924 ft 381 kts 85°
2026-05-04 21:14 49.10672 3.85756 22380 ft 385 kts 86°
2026-05-04 21:14 49.10941 3.89840 22819 ft 389 kts 86°
2026-05-04 21:14 49.11206 3.93918 22949 ft 386 kts 86°
2026-05-04 21:14 49.11472 3.98010 22981 ft 389 kts 86°
2026-05-04 21:15 49.11738 4.02125 22994 ft 390 kts 86°
2026-05-04 21:15 49.12001 4.06241 22977 ft 390 kts 86°
2026-05-04 21:15 49.12265 4.10354 22960 ft 389 kts 86°
2026-05-04 21:15 49.12525 4.14469 22965 ft 389 kts 86°
2026-05-04 21:16 49.12786 4.18580 22974 ft 390 kts 86°
2026-05-04 21:16 49.13045 4.22713 22963 ft 390 kts 86°
2026-05-04 21:16 49.13302 4.26839 22965 ft 390 kts 86°
2026-05-04 21:16 49.13587 4.30959 22970 ft 392 kts 82°
2026-05-04 21:17 49.14180 4.35016 22967 ft 392 kts 76°
2026-05-04 21:17 49.14925 4.39033 22967 ft 393 kts 75°
2026-05-04 21:17 49.15784 4.43000 22967 ft 395 kts 70°
2026-05-04 21:17 49.16799 4.46840 22967 ft 395 kts 69°
2026-05-04 21:18 49.17850 4.50775 22966 ft 395 kts 69°
2026-05-04 21:18 49.18900 4.54649 22960 ft 395 kts 69°
2026-05-04 21:18 49.19937 4.58478 22963 ft 395 kts 69°
2026-05-04 21:18 49.20985 4.62357 22964 ft 395 kts 69°
2026-05-04 21:19 49.22032 4.66240 22962 ft 395 kts 69°
2026-05-04 21:19 49.23080 4.70132 22964 ft 396 kts 69°
2026-05-04 21:19 49.24127 4.74028 22960 ft 396 kts 69°
2026-05-04 21:19 49.25174 4.77932 22956 ft 396 kts 69°
2026-05-04 21:20 49.26216 4.81824 22963 ft 396 kts 69°
2026-05-04 21:20 49.27259 4.85725 22964 ft 396 kts 69°
2026-05-04 21:20 49.28299 4.89621 22960 ft 396 kts 69°
2026-05-04 21:20 49.29344 4.93540 22959 ft 397 kts 69°
2026-05-04 21:21 49.30381 4.97444 22964 ft 397 kts 69°
2026-05-04 21:21 49.31421 5.01362 22965 ft 397 kts 69°
2026-05-04 21:21 49.32459 5.05277 22962 ft 397 kts 69°
2026-05-04 21:21 49.33499 5.09206 22958 ft 397 kts 69°
2026-05-04 21:22 49.34536 5.13131 22962 ft 397 kts 69°
2026-05-04 21:22 49.35570 5.17052 22960 ft 397 kts 69°
2026-05-04 21:22 49.36606 5.20988 22955 ft 397 kts 70°
2026-05-04 21:22 49.37639 5.24921 22964 ft 397 kts 70°
2026-05-04 21:23 49.38672 5.28855 22964 ft 397 kts 70°
2026-05-04 21:23 49.39703 5.32793 22955 ft 397 kts 70°
2026-05-04 21:23 49.40734 5.36735 22967 ft 398 kts 70°
2026-05-04 21:23 49.41764 5.40681 22964 ft 398 kts 70°
2026-05-04 21:24 49.42791 5.44625 22963 ft 398 kts 70°
2026-05-04 21:24 49.43821 5.48583 22958 ft 398 kts 70°
2026-05-04 21:24 49.44846 5.52531 22965 ft 398 kts 70°
2026-05-04 21:24 49.45783 5.56151 22968 ft 398 kts 70°
2026-05-04 21:25 49.46808 5.60107 22962 ft 398 kts 70°
2026-05-04 21:25 49.47832 5.64068 22957 ft 398 kts 70°
2026-05-04 21:25 49.48836 5.67966 22962 ft 398 kts 70°
2026-05-04 21:25 49.49856 5.71926 22968 ft 398 kts 70°
2026-05-04 21:26 49.51012 5.75801 22962 ft 400 kts 61°
2026-05-04 21:26 49.52735 5.79165 22956 ft 402 kts 42°
2026-05-04 21:26 49.55026 5.81641 22981 ft 403 kts 32°
2026-05-04 21:26 49.57356 5.84017 22977 ft 403 kts 33°
2026-05-04 21:27 49.59709 5.86372 22970 ft 402 kts 33°
2026-05-04 21:27 49.62053 5.88719 22962 ft 402 kts 33°
2026-05-04 21:27 49.64403 5.91072 22961 ft 402 kts 33°
2026-05-04 21:27 49.66750 5.93425 22967 ft 403 kts 33°
2026-05-04 21:28 49.69103 5.95787 22969 ft 403 kts 33°
2026-05-04 21:28 49.71454 5.98151 22964 ft 402 kts 33°
2026-05-04 21:28 49.73798 6.00511 22963 ft 403 kts 33°
2026-05-04 21:28 49.76148 6.02880 22967 ft 403 kts 33°
2026-05-04 21:29 49.78487 6.05241 22965 ft 403 kts 33°
2026-05-04 21:29 49.80963 6.07266 22967 ft 402 kts 21°
2026-05-04 21:29 49.83507 6.09079 22966 ft 403 kts 27°
2026-05-04 21:29 49.85958 6.11192 22967 ft 404 kts 30°
2026-05-04 21:30 49.88386 6.13389 22965 ft 403 kts 30°
2026-05-04 21:30 49.90798 6.15612 22964 ft 404 kts 31°
2026-05-04 21:30 49.93209 6.17852 22963 ft 404 kts 31°
2026-05-04 21:30 49.95626 6.20099 22958 ft 404 kts 30°
2026-05-04 21:31 50.00563 6.24278 22959 ft 405 kts 27°
2026-05-04 21:31 50.03071 6.26305 22958 ft 405 kts 27°
2026-05-04 21:31 50.05578 6.28316 22962 ft 405 kts 27°
2026-05-04 21:32 50.08089 6.30299 22962 ft 406 kts 26°
2026-05-04 21:32 50.10619 6.32261 22963 ft 406 kts 26°
2026-05-04 21:32 50.13153 6.34213 22960 ft 406 kts 26°
2026-05-04 21:32 50.15664 6.36142 22963 ft 407 kts 26°
2026-05-04 21:33 50.18197 6.38086 22957 ft 407 kts 26°
2026-05-04 21:33 50.20736 6.40034 22958 ft 407 kts 26°
2026-05-04 21:33 50.23285 6.41990 22955 ft 407 kts 26°
2026-05-04 21:33 50.25829 6.43942 22956 ft 407 kts 26°
2026-05-04 21:34 50.28363 6.45890 22951 ft 408 kts 26°
2026-05-04 21:34 50.30913 6.47849 22959 ft 408 kts 26°
2026-05-04 21:34 50.33448 6.49824 22361 ft 406 kts 27°
2026-05-04 21:34 50.35929 6.51950 21301 ft 411 kts 30°
2026-05-04 21:35 50.38397 6.54185 20603 ft 408 kts 30°
2026-05-04 21:35 50.40839 6.56438 19934 ft 404 kts 31°
2026-05-04 21:35 50.43248 6.58675 19279 ft 400 kts 31°
2026-05-04 21:35 50.45624 6.60890 18644 ft 396 kts 31°
2026-05-04 21:36 50.47976 6.63087 17997 ft 392 kts 31°
2026-05-04 21:36 50.50308 6.65271 17317 ft 387 kts 31°
2026-05-04 21:36 50.52607 6.67428 16662 ft 383 kts 31°
2026-05-04 21:36 50.54878 6.69560 16016 ft 378 kts 31°
2026-05-04 21:37 50.57141 6.71619 15401 ft 374 kts 30°
2026-05-04 21:37 50.59409 6.73582 14781 ft 370 kts 26°
2026-05-04 21:37 50.61739 6.75245 14195 ft 366 kts 22°
2026-05-04 21:37 50.64077 6.76774 13588 ft 362 kts 21°
2026-05-04 21:38 50.66399 6.78251 12916 ft 358 kts 21°
2026-05-04 21:38 50.68704 6.79699 12301 ft 355 kts 21°
2026-05-04 21:38 50.70986 6.81124 11668 ft 351 kts 21°
2026-05-04 21:38 50.73242 6.82529 11248 ft 343 kts 21°
2026-05-04 21:39 50.75422 6.83886 10993 ft 330 kts 21°
2026-05-04 21:39 50.77524 6.85195 10732 ft 320 kts 21°
2026-05-04 21:39 50.79562 6.86467 10421 ft 312 kts 21°
2026-05-04 21:39 50.81570 6.87720 10084 ft 309 kts 21°
2026-05-04 21:40 50.83564 6.88963 9656 ft 308 kts 21°
2026-05-04 21:40 50.85547 6.90199 9243 ft 305 kts 21°
2026-05-04 21:40 50.87522 6.91429 8807 ft 303 kts 21°
2026-05-04 21:40 50.89450 6.92630 8393 ft 300 kts 21°
2026-05-04 21:41 50.91384 6.93831 7967 ft 298 kts 21°
2026-05-04 21:41 50.93303 6.95021 7562 ft 295 kts 21°
2026-05-04 21:41 50.95213 6.96203 7188 ft 292 kts 21°
2026-05-04 21:41 50.97129 6.97386 7091 ft 296 kts 21°
2026-05-04 21:42 50.99014 6.98550 7038 ft 283 kts 21°
2026-05-04 21:42 51.00802 6.99650 7000 ft 268 kts 21°
2026-05-04 21:42 51.02518 7.00682 6995 ft 258 kts 20°
2026-05-04 21:42 51.04185 7.01668 6994 ft 256 kts 20°
2026-05-04 21:43 51.05861 7.02653 7008 ft 258 kts 20°
2026-05-04 21:43 51.07552 7.03645 7034 ft 258 kts 20°
2026-05-04 21:43 51.09237 7.04632 7026 ft 259 kts 20°
2026-05-04 21:43 51.10926 7.05623 7025 ft 258 kts 21°
2026-05-04 21:44 51.12403 7.07175 6995 ft 256 kts 51°
2026-05-04 21:44 51.13413 7.09500 7019 ft 255 kts 60°
2026-05-04 21:44 51.14319 7.11940 7034 ft 255 kts 62°
2026-05-04 21:44 51.15194 7.14399 7016 ft 255 kts 63°
2026-05-04 21:45 51.16063 7.16873 7013 ft 255 kts 63°
2026-05-04 21:45 51.16927 7.19346 6997 ft 255 kts 63°
2026-05-04 21:45 51.17791 7.21823 7016 ft 256 kts 63°
2026-05-04 21:45 51.18655 7.24297 7019 ft 256 kts 63°
2026-05-04 21:46 51.19518 7.26770 7012 ft 257 kts 63°
2026-05-04 21:46 51.20503 7.29154 6993 ft 258 kts 45°
2026-05-04 21:46 51.21477 7.30235 7011 ft 260 kts 24°
2026-05-04 21:46 51.23242 7.30691 7028 ft 259 kts 351°
2026-05-04 21:47 51.24958 7.29890 7041 ft 257 kts 336°
2026-05-04 21:47 51.26606 7.28804 7039 ft 256 kts 334°
2026-05-04 21:47 51.28242 7.27699 6797 ft 256 kts 335°
2026-05-04 21:47 51.29884 7.26600 6511 ft 255 kts 335°
2026-05-04 21:48 51.31517 7.25510 6205 ft 253 kts 335°
2026-05-04 21:48 51.33137 7.24427 5905 ft 252 kts 335°
2026-05-04 21:48 51.34748 7.23343 5607 ft 250 kts 335°
2026-05-04 21:48 51.36297 7.22123 5292 ft 247 kts 321°
2026-05-04 21:49 51.37596 7.20374 4992 ft 244 kts 315°
2026-05-04 21:49 51.38808 7.18561 4820 ft 236 kts 314°
2026-05-04 21:49 51.39962 7.16785 4800 ft 223 kts 313°
2026-05-04 21:49 51.41054 7.15088 4723 ft 214 kts 313°
2026-05-04 21:50 51.41921 7.13261 4594 ft 201 kts 285°
2026-05-04 21:50 51.42082 7.11126 4343 ft 191 kts 267°
2026-05-04 21:50 51.42111 7.08998 3997 ft 191 kts 269°
2026-05-04 21:50 51.42144 7.06898 3787 ft 187 kts 267°
2026-05-04 21:51 51.41885 7.04901 3422 ft 183 kts 242°
2026-05-04 21:51 51.41174 7.03227 3127 ft 185 kts 230°
2026-05-04 21:51 51.40374 7.01508 3100 ft 187 kts 234°
2026-05-04 21:51 51.39637 6.99863 3026 ft 179 kts 232°
2026-05-04 21:52 51.38877 6.98276 3010 ft 180 kts 232°
2026-05-04 21:52 51.38130 6.96689 2959 ft 183 kts 232°
2026-05-04 21:52 51.37366 6.95066 2689 ft 181 kts 232°
2026-05-04 21:52 51.36615 6.93474 2463 ft 179 kts 232°
2026-05-04 21:53 51.35864 6.91882 2234 ft 172 kts 232°
2026-05-04 21:53 51.35162 6.90395 2001 ft 164 kts 231°
2026-05-04 21:53 51.34498 6.88991 1830 ft 157 kts 232°
2026-05-04 21:53 51.33850 6.87619 1653 ft 151 kts 231°
2026-05-04 21:54 51.33237 6.86323 1511 ft 145 kts 232°
2026-05-04 21:54 51.32616 6.85011 1303 ft 142 kts 231°
2026-05-04 21:54 51.32058 6.83832 1035 ft 128 kts 231°
2026-05-04 21:54 51.31529 6.82716 827 ft 124 kts 231°
2026-05-04 21:55 51.31035 6.81669 649 ft 113 kts 232°
2026-05-04 21:55 51.30571 6.80652 449 ft 115 kts 232°
2026-05-04 21:55 51.30086 6.79632 348 ft 118 kts 230°
2026-05-04 21:55 51.29579 6.78597 250 ft 117 kts 231°
2026-05-04 21:56 51.29104 6.77590 146 ft 106 kts 231°
2026-05-04 21:56 51.28744 6.76847 140 ft 59 kts 236°
2026-05-04 21:56 51.28519 6.76378 132 ft 51 kts 232°
2026-05-04 21:56 51.28357 6.76077 131 ft 23 kts 210°
2026-05-04 21:57 51.28215 6.75966 133 ft 23 kts 205°
2026-05-04 21:57 51.28122 6.75898 133 ft 6 kts 206°
2026-05-04 21:57 51.28052 6.75848 126 ft 16 kts 204°
2026-05-04 21:57 51.27945 6.75823 129 ft 12 kts 180°
2026-05-04 21:58 51.27858 6.75836 129 ft 13 kts 148°
2026-05-04 21:58 51.27844 6.75978 129 ft 15 kts 91°
2026-05-04 21:58 51.27841 6.76164 128 ft 18 kts 90°
2026-05-04 21:58 51.27856 6.76272 127 ft 6 kts 44°
2026-05-04 21:59 51.27884 6.76322 128 ft 6 kts 49°
2026-05-04 21:59 51.27890 6.76331 128 ft 0 kts 47°